Location: Tamazert
(32.6352°N, 5.2072°W)
Time: 06:08:51
(UTC+00:00)

Vanguard 2 - Pass Details

Date: 06 October 2022
Orbit: 553 x 2933 km, 32.9° (Epoch: 26 November)

Event Time Altitude Azimuth Distance (km) Brightness Sun altitude
Rises 20:13:22 0° 279° (W) 6,616 13.5 -28.9°
Reaches altitude 10° 20:19:16 10° 266° (W) 5,732 12.8 -30.1°
Maximum altitude 20:30:56 22° 225° (SW) 4,729 11.7 -32.5°
Drops below altitude 10° 20:41:45 10° 182° (S) 5,213 11.6 -34.7°
Enters shadow 20:45:33 - 171° (S) 5,693 11.7 -35.5°
Sets 20:46:51 0° 168° (SSE) 5,882 - -35.7°
